Change the Weather History Date:

Saturday, November 23, 2013

  Actual Average Record
Temperature  
Mean Temperature 34 °F 47 °F  
Max Temperature 37 °F 63 °F 76 °F (1950)
Min Temperature 30 °F 31 °F 10 °F (1957)
Degree Days  
Heating Degree Days 32    
Moisture  
Dew Point 31 °F    
Average Humidity 82    
Maximum Humidity 100    
Minimum Humidity 64    
Precipitation  
Precipitation 0.12 in 0.03 in 0.12 in (2013)
Month to date precipitation 0.14 0.51  
Year to date precipitation 9.50 10.46  
Sea Level Pressure  
Sea Level Pressure 30.27 in    
Wind  
Wind Speed 18 mph (ENE)    
Max Wind Speed 25 mph    
Max Gust Speed 33 mph    
Visibility 5 miles    
Events Rain , Snow    
T = Trace of Precipitation, MM = Missing Value Source: NWS Daily Summary

Daily Weather History Graph

Daily Weather History Graph

Search for Another Location

Airport or City:

Trip Planner

Search our weather history database for the weather conditions in past years. The results will help you decide how hot, cold, wet, or windy it might be!

Date:

Astronomy

Nov. 23, 2013 Rise Set
Actual Time 6:47 AM MST 5:07 PM MST
Civil Twilight 6:21 AM MST 5:33 PM MST
Nautical Twilight 5:51 AM MST 6:03 PM MST
Astronomical Twilight 5:21 AM MST 6:32 PM MST
Moon 10:30 PM MST (11/23) 11:12 AM MST (11/23)
Length of Visible Light 11h 12m
Length of Day
10h 19m
Waning Gibbous, 69% of the Moon is Illuminated
Nov 23
Waning Gibbous
Nov 25
Last Quarter
Dec 2
New
Dec 9
First Quarter
Dec 17
Full

Hourly Weather History & Observations

Time (MST) Temp. Windchill Dew Point Humidity Pressure Visibility Wind Dir Wind Speed Gust Speed Precip Events Conditions
12:53 AM 36.0 °F 24.4 °F 26.1 °F 67% 30.22 in 10.0 mi East 23.0 mph 27.6 mph N/A   Overcast
1:53 AM 36.0 °F 25.0 °F 25.0 °F 64% 30.22 in 10.0 mi East 20.7 mph 28.8 mph N/A   Overcast
2:53 AM 36.0 °F 25.0 °F 25.0 °F 64% 30.23 in 10.0 mi East 20.7 mph 27.6 mph N/A   Overcast
3:53 AM 36.0 °F 26.3 °F 25.0 °F 64% 30.23 in 10.0 mi East 16.1 mph 26.5 mph N/A   Overcast
4:53 AM 35.1 °F 24.8 °F 27.0 °F 72% 30.27 in 10.0 mi East 17.3 mph 24.2 mph N/A   Overcast
5:53 AM 36.0 °F 26.0 °F 27.0 °F 70% 30.27 in 10.0 mi East 17.3 mph 23.0 mph N/A   Overcast
6:53 AM 34.0 °F 24.2 °F 28.9 °F 82% 30.29 in 6.0 mi East 15.0 mph 27.6 mph 0.00 in Rain Light Rain
7:53 AM 36.0 °F 25.0 °F 28.9 °F 76% 30.32 in 10.0 mi East 20.7 mph 27.6 mph 0.00 in   Overcast
8:53 AM 35.1 °F 24.1 °F 30.9 °F 85% 30.32 in 7.0 mi East 19.6 mph 27.6 mph 0.00 in Rain Light Rain
9:38 AM 35.6 °F 24.8 °F 32.0 °F 87% 30.34 in 10.0 mi East 19.6 mph 27.6 mph 0.00 in   Overcast
9:53 AM 35.1 °F 23.5 °F 30.9 °F 85% 30.32 in 10.0 mi East 21.9 mph 32.2 mph 0.00 in   Overcast
10:53 AM 36.0 °F 24.4 °F 30.9 °F 82% 30.30 in 8.0 mi ENE 23.0 mph 31.1 mph 0.00 in   Overcast
11:53 AM 37.0 °F 25.6 °F 30.9 °F 79% 30.26 in 10.0 mi ENE 24.2 mph 29.9 mph 0.00 in   Overcast
12:48 PM 35.6 °F 26.2 °F 32.0 °F 87% 30.28 in 7.0 mi ENE 15.0 mph - 0.00 in   Overcast
12:53 PM 36.0 °F 25.6 °F 32.0 °F 86% 30.25 in 6.0 mi ENE 18.4 mph 24.2 mph 0.00 in Rain Light Rain
1:03 PM 35.6 °F 25.5 °F 32.0 °F 87% 30.27 in 8.0 mi ENE 17.3 mph 27.6 mph 0.00 in   Overcast
1:53 PM 36.0 °F 25.6 °F 32.0 °F 86% 30.23 in 8.0 mi ENE 18.4 mph - 0.02 in Rain Light Rain
2:53 PM 35.1 °F 23.5 °F 33.1 °F 92% 30.21 in 4.0 mi ENE 21.9 mph 27.6 mph 0.00 in   Overcast
3:12 PM 35.6 °F 25.9 °F 33.8 °F 93% 30.24 in 2.5 mi ENE 16.1 mph 26.5 mph 0.00 in   Overcast
3:27 PM 35.6 °F 24.0 °F 33.8 °F 93% 30.23 in 3.0 mi ENE 23.0 mph 28.8 mph 0.00 in   Overcast
3:30 PM 35.6 °F 25.2 °F 33.8 °F 93% 30.24 in 2.5 mi ENE 18.4 mph 28.8 mph 0.00 in   Overcast
3:43 PM 35.6 °F 26.2 °F 33.8 °F 93% 30.25 in 3.0 mi ENE 15.0 mph - 0.00 in   Overcast
3:47 PM 35.6 °F 24.8 °F 33.8 °F 93% 30.25 in 2.5 mi ENE 19.6 mph 26.5 mph 0.00 in   Overcast
3:53 PM 35.1 °F 25.9 °F 33.1 °F 92% 30.24 in 2.0 mi ENE 13.8 mph 26.5 mph 0.00 in Rain Light Rain
3:55 PM 35.6 °F 25.9 °F 33.8 °F 93% 30.26 in 1.8 mi ENE 16.1 mph 21.9 mph 0.00 in Rain Light Rain
4:53 PM 34.0 °F 24.6 °F 33.1 °F 96% 30.26 in 1.5 mi East 13.8 mph - 0.02 in Rain Light Rain
5:11 PM 33.8 °F 25.3 °F 33.8 °F 100% 30.26 in 2.5 mi East 11.5 mph - 0.00 in Rain Light Rain
5:19 PM 33.8 °F 25.3 °F 33.8 °F 100% 30.26 in 3.0 mi ENE 11.5 mph - 0.00 in   Overcast
5:53 PM 34.0 °F 24.6 °F 32.0 °F 92% 30.26 in 4.0 mi East 13.8 mph 25.3 mph 0.01 in Rain Light Rain
6:02 PM 33.8 °F 23.5 °F 32.0 °F 93% 30.28 in 4.0 mi East 16.1 mph 23.0 mph 0.00 in   Overcast
6:23 PM 33.8 °F 24.3 °F 32.0 °F 93% 30.28 in 8.0 mi ENE 13.8 mph 25.3 mph 0.00 in   Overcast
6:53 PM 33.1 °F 22.6 °F 30.9 °F 92% 30.28 in 3.0 mi East 16.1 mph 24.2 mph 0.00 in Snow Light Snow
7:00 PM 32.0 °F 20.8 °F 30.2 °F 93% 30.28 in 3.0 mi East 17.3 mph 23.0 mph 0.00 in Snow Light Snow
7:23 PM 32.0 °F 21.2 °F 30.2 °F 93% 30.29 in 6.0 mi East 16.1 mph - 0.00 in   Overcast
7:40 PM 32.0 °F 21.2 °F 30.2 °F 93% 30.28 in 2.5 mi East 16.1 mph 25.3 mph 0.00 in Snow Light Snow
7:53 PM 32.0 °F 22.1 °F 30.9 °F 96% 30.29 in 1.0 mi East 13.8 mph 23.0 mph 0.00 in Snow Light Snow
7:57 PM 32.0 °F 21.6 °F 30.2 °F 93% 30.29 in 0.8 mi East 15.0 mph 23.0 mph 0.01 in Snow Light Snow
8:30 PM 30.2 °F 18.5 °F 30.2 °F 100% 30.30 in 1.0 mi East 17.3 mph 23.0 mph 0.03 in Snow Light Snow
8:53 PM 30.9 °F 20.7 °F 30.0 °F 96% 30.30 in 1.5 mi East 13.8 mph 21.9 mph 0.03 in Snow Light Snow
9:45 PM 30.2 °F 19.3 °F 28.4 °F 93% 30.31 in 2.5 mi East 15.0 mph - 0.01 in Snow Light Snow
9:53 PM 30.0 °F 21.1 °F 28.9 °F 96% 30.32 in 1.8 mi East 10.4 mph - 0.01 in Snow Light Snow
10:53 PM 30.0 °F 18.7 °F 28.9 °F 96% 30.30 in 1.2 mi East 16.1 mph - 0.01 in Snow Light Snow
11:53 PM 30.0 °F 17.9 °F 28.0 °F 92% 30.30 in 1.0 mi East 18.4 mph 26.5 mph 0.02 in Snow Light Snow